Flag for Romania Weather past 2 weeks in Iasi, Romania

Now
63 °F

Passing clouds.


Feels Like: 63 °F
Forecast: 64 / 83 °F
Wind: 2 mph from Northwest

Location: Iasi Airport

Current Time: Jul 4, 2015 at 1:55:12 AM

Latest Report: Jul 4, 2015 at 1:00 AM


Visibility: N/A

Pressure: 30.30 "Hg

Humidity: 88%

Dew point: 59 °F

Location of IasiLocation

Historic Weather in Iasi — Graph

°F

Iasi temperature yesterday

Maximum temperature yesterday: 82 °F (at 2:30 PM)
Minimum temperature yesterday: 63 °F (at 4:00 AM)
Average temperature yesterday: 72 °F

Past Weeks' High & Low Weather Summary

 TemperatureHumidityPressure
High82 °F (Jun 24, 3:00 PM)100% (Jun 19, 3:00 AM)30.30 "Hg (Jun 19, 3:00 AM)
Low52 °F (Jun 19, 3:00 AM)31% (Jun 19, 7:00 PM)29.74 "Hg (Jun 19, 5:00 PM)
Average69 °F63%29.97 "Hg
* Reported Jun 19 1:00 AM — Jul 4 1:00 AM, Iasi, Weather by CustomWeather, © 2015

Note: Actual official high and low records may vary slightly from our data, if they occured in-between our weather recording intervals... More about our weather records

Advertising

Iasi weather history for previous 24 hours

 ConditionsComfort  
Time TempWeatherWind HumidityBarometerVisibility
1:00 AM
Sat, Jul 4
63 °FPassing clouds.2 mph88%30.30 "HgN/A
12:00 AM66 °FClear.5 mph78%30.30 "Hg10 mi
11:00 PM
Fri, Jul 3
64 °FPassing clouds.3 mph83%30.30 "HgN/A
10:00 PM66 °FSunny.7 mph78%30.27 "Hg10 mi
9:00 PM70 °FPassing clouds.13 mph69%30.27 "HgN/A
8:30 PM79 °FSunny.8 mph48%30.24 "Hg10 mi
8:00 PM79 °FPassing clouds.13 mph45%30.24 "HgN/A
7:30 PM81 °FPassing clouds.14 mph42%30.24 "HgN/A
7:00 PM82 °FScattered clouds.15 mph40%30.21 "HgN/A
6:30 PM82 °FPassing clouds.7 mph42%30.24 "HgN/A
6:00 PM81 °FPassing clouds.2 mph48%30.24 "HgN/A
5:30 PM81 °FSunny.2 mph51%30.24 "Hg10 mi
5:00 PM79 °FSunny.3 mph54%30.24 "Hg10 mi
4:30 PM75 °FSunny.2 mph65%30.24 "Hg10 mi
4:00 PM72 °FPassing clouds.9 mph73%30.24 "HgN/A
3:30 PM72 °FSprinkles. Scattered clouds.18 mph65%30.27 "HgN/A
3:00 PM81 °FPassing clouds.14 mph42%30.24 "HgN/A
2:30 PM82 °FPassing clouds.18 mph42%30.24 "HgN/A
2:00 PM81 °FPassing clouds.17 mph45%30.24 "HgN/A
1:30 PM81 °FPassing clouds.20 mph45%30.24 "HgN/A
1:00 PM79 °FScattered clouds.16 mph48%30.24 "HgN/A
12:30 PM79 °FScattered clouds.16 mph48%30.27 "HgN/A
12:00 PM77 °FScattered clouds.12 mph57%30.27 "HgN/A
11:30 AM75 °FPartly sunny.10 mph57%30.27 "HgN/A
11:00 AM75 °FScattered clouds.9 mph61%30.27 "HgN/A
10:30 AM73 °FScattered clouds.8 mph65%30.27 "HgN/A
10:00 AM72 °FScattered clouds.9 mph69%30.27 "HgN/A
9:30 AM70 °FSunny.10 mph73%30.27 "Hg10 mi
8:30 AM66 °FSunny.12 mph78%30.27 "Hg10 mi
8:00 AM64 °FSunny.12 mph83%30.24 "Hg10 mi
7:30 AM64 °FSunny.12 mph83%30.24 "Hg10 mi
7:00 AM64 °FSunny.12 mph83%30.24 "Hg10 mi
6:30 AM64 °FSunny.8 mph83%30.24 "Hg10 mi
6:00 AM63 °FClear.8 mph83%30.21 "Hg10 mi
5:30 AM63 °FClear.9 mph83%30.21 "Hg10 mi
5:00 AM63 °FClear.9 mph88%30.21 "Hg10 mi
4:00 AM63 °FClear.9 mph88%30.21 "Hg10 mi
3:00 AM64 °FClear.8 mph78%30.21 "Hg10 mi
2:00 AM66 °FClear.8 mph73%30.21 "Hg10 mi
1:00 AM64 °FClear.9 mph78%30.21 "Hg10 mi
Weather by CustomWeather, © 2015

See weather overviewHow to use our weather pages